Location: Maccacari
(45.1333°N, 11.1333°E)
Time: 01:47:25
(UTC+00:00)

Tiros 1 despin weight - Pass Details

Date: 23 January 2021
Orbit: 593 x 642 km, 48.2° (Epoch: 07 March)

Event Time Altitude Azimuth Distance (km) Brightness Sun altitude
Rises 13:16:38 0° 214° (SSW) 2,888 ? 20.9°
Reaches altitude 10° 13:19:10 10° 203° (SSW) 1,976 ? 20.7°
Maximum altitude 13:23:06 30° 143° (SE) 1,113 ? 20.4°
Drops below altitude 10° 13:27:01 10° 82° (E) 1,957 ? 20.0°
Sets 13:29:30 0° 72° (ENE) 2,856 ? 19.8°
